Vorticity
nan nan nan nan nan nan nan nan nan nan nan nan nan nan nan nan nan nan nan nan nan nan nan nan nan nan nan nan nan nan nan nan nan nan nan nan nan nan nan nan nan nan nan nan nan
nan 8 8 8 8 8 7 6 6 6 6 6 6 7 7 13 20 9 9 7 5 5 4 5 3 10 20 1 0 9 9 10 4 3 10 9 9 10 9 2 3 9 6 14 nan
nan 8 8 8 8 8 8 7 6 6 6 6 7 7 8 13 15 17 19 10 3 2 2 6 9 9 15 10 6 6 5 4 8 7 7 7 8 12 6 6 13 6 6 2 nan
nan 9 9 8 8 8 8 7 6 6 6 6 7 8 14 15 6 15 16 10 5 5 6 5 7 11 6 7 12 9 4 8 8 3 5 7 9 9 9 20 17 7 6 6 nan
nan 10 10 9 8 9 8 8 7 6 6 7 7 10 17 11 7 10 7 6 4 8 6 3 4 9 10 5 8 4 6 11 8 6 6 9 7 12 14 18 11 10 5 8 nan
nan 10 10 9 9 8 8 8 7 6 6 7 7 13 13 4 17 8 5 4 7 4 4 5 4 11 11 11 7 3 4 5 10 9 9 11 2 7 16 11 9 6 6 8 nan
nan 10 10 9 9 9 9 8 7 6 7 7 9 13 11 4 5 10 6 2 7 5 5 5 8 8 8 9 5 6 11 10 7 10 9 2 2 6 5 7 14 3 9 8 nan
nan 10 9 10 10 9 9 8 7 7 8 8 11 12 7 14 3 5 12 6 7 6 5 4 10 9 8 6 10 10 3 9 10 7 7 5 6 10 5 10 12 3 4 19 nan
nan 11 10 10 11 11 9 8 9 11 12 11 9 8 9 11 13 12 6 7 10 7 6 7 7 6 7 12 10 12 8 1 7 13 13 2 8 22 29 16 9 9 5 11 nan
nan 12 12 12 11 11 10 12 12 17 16 9 6 7 15 11 8 9 5 10 9 8 8 8 7 6 5 7 12 3 4 8 4 13 16 5 8 7 10 28 18 3 6 7 nan
nan 13 14 13 11 10 13 12 7 14 14 7 -0 -4 7 15 8 8 7 10 7 9 8 6 6 6 6 11 7 5 6 2 9 12 9 5 0 6 4 8 14 10 2 1 nan
nan 11 14 13 12 11 11 7 -2 5 23 9 1 6 6 15 12 8 10 7 9 7 4 9 8 5 8 13 4 7 7 6 17 14 1 3 2 6 3 16 17 3 7 11 nan
nan 12 11 14 15 12 10 1 -7 5 21 22 20 9 13 16 9 9 9 5 6 7 8 8 5 10 13 8 7 6 9 11 9 2 2 2 -1 5 12 17 9 1 11 5 nan
nan 16 15 10 11 10 9 12 6 8 9 21 14 9 15 6 12 13 6 4 6 9 9 4 8 11 15 8 7 5 5 9 8 11 9 5 11 4 12 11 16 2 4 5 nan
nan 21 25 6 4 9 11 11 8 7 14 17 6 12 15 6 6 13 10 4 6 5 7 7 10 12 9 7 8 8 7 6 10 12 2 5 15 7 8 19 18 10 3 7 nan
nan 21 21 9 11 4 4 14 12 8 20 11 11 13 8 4 5 16 7 7 7 10 8 10 7 13 11 6 7 8 8 10 17 6 6 12 2 13 17 20 14 18 11 7 nan
nan 25 9 3 6 12 16 13 8 9 13 13 12 9 4 7 13 12 7 7 5 5 9 13 11 10 13 8 10 11 5 7 9 11 17 10 6 11 9 19 15 21 16 14 nan
nan 27 12 2 -3 12 19 10 7 9 9 13 11 7 5 5 18 11 5 7 6 2 9 11 12 16 6 9 12 8 9 4 11 10 10 3 3 10 3 15 17 16 15 11 nan
nan 20 11 15 10 5 12 9 5 12 12 13 14 6 7 6 14 11 8 8 9 8 2 3 16 17 6 9 5 5 9 13 3 6 13 11 8 4 3 13 9 8 12 13 nan
nan 11 13 17 14 5 8 8 8 -1 2 10 13 10 8 9 6 9 11 8 7 11 2 5 11 12 13 5 7 11 1 8 14 14 8 6 13 4 8 14 6 7 7 8 nan
nan 10 21 16 3 6 9 8 7 3 4 8 11 7 9 14 9 8 5 12 15 13 8 7 6 9 13 11 9 7 11 11 14 7 10 8 5 13 6 11 8 7 7 8 nan
nan 15 17 5 3 7 6 3 2 2 11 16 8 13 21 10 7 11 10 16 15 9 16 7 7 12 5 5 12 11 11 14 7 9 8 8 4 7 13 11 7 6 7 8 nan
nan 15 12 4 4 7 9 7 2 13 12 8 8 7 13 8 17 12 9 11 16 12 8 10 10 10 7 9 12 4 1 5 15 20 13 9 17 4 12 7 8 7 7 7 nan
nan 12 11 8 4 4 7 12 20 14 7 8 15 10 7 14 10 14 10 6 9 11 10 8 10 14 19 10 1 -3 2 15 16 9 16 11 17 16 13 7 5 8 9 9 nan
nan 8 8 7 10 11 7 5 10 17 17 6 7 17 16 15 6 9 10 16 5 4 10 8 8 10 17 13 6 4 5 9 8 7 22 23 15 12 9 6 10 7 7 7 nan
nan 9 10 10 9 20 16 4 8 19 9 11 6 14 24 17 10 5 5 8 10 12 10 7 8 9 10 16 13 7 10 6 5 22 23 15 13 15 9 4 10 9 8 6 nan
nan nan nan nan nan nan nan nan nan nan nan nan nan nan nan nan nan nan nan nan nan nan nan nan nan nan nan nan nan nan nan nan nan nan nan nan nan nan nan nan nan nan nan nan nan
CAPE
0 0 0 1 0 0 2 2 2 1 1 0 0 0 1 0 0 0 0 0 0 0 0 0 0 0 0 18 0 19 8 41 55 123 182 275 134 160 445 33 805 779 542 79 13
0 0 0 0 0 0 0 1 1 0 0 0 0 0 1 0 0 0 0 0 0 0 0 0 0 0 0 81 111 80 15 136 27 5 37 306 169 144 235 537 892 625 24 6 14
1 1 0 0 0 0 0 1 1 0 0 0 0 0 0 0 0 0 0 0 0 0 0 0 0 0 0 0 6 201 22 55 33 29 5 88 265 70 304 393 888 743 281 180 426
1 1 1 0 0 0 0 1 1 0 0 0 0 0 0 0 0 0 0 0 0 0 0 0 0 0 9 20 28 47 59 0 8 26 11 56 70 143 179 448 669 391 183 604 646
2 1 1 1 0 0 0 2 0 0 0 0 0 0 0 0 0 0 120 0 0 0 0 0 0 0 5 31 13 37 8 2 27 8 6 0 2 17 355 353 626 295 839 757 730
3 2 0 1 1 0 1 3 1 0 0 0 0 0 0 0 0 0 0 0 0 0 0 0 0 0 0 23 8 28 23 12 27 0 0 0 0 115 214 178 261 920 554 200 741
5 3 1 1 1 0 2 2 0 0 0 0 0 0 0 0 0 0 0 0 0 0 0 0 0 0 0 0 0 3 0 0 9 17 6 34 0 53 279 292 1027 801 718 659 665
10 10 4 1 1 0 2 0 0 0 0 0 0 0 0 0 0 0 0 0 0 0 0 0 0 0 0 0 2 13 0 7 26 45 16 27 3 143 119 267 634 549 94 476 479
7 4 12 0 2 1 0 0 0 0 0 0 0 0 0 0 0 0 0 0 0 0 0 0 0 0 0 0 0 7 0 0 18 18 45 71 93 360 416 316 614 488 140 329 623
2 3 10 0 0 0 0 0 0 0 0 0 0 0 0 0 0 0 0 0 0 0 0 0 0 0 0 0 0 1 22 19 80 30 28 162 53 27 4 129 307 236 33 110 196
2 1 3 1 1 0 0 0 0 0 0 0 0 0 0 0 0 0 0 0 0 0 0 0 0 0 0 0 6 0 34 37 97 48 80 8 0 0 65 85 168 7 25 5 3
10 3 2 0 1 0 0 0 0 0 0 0 0 0 0 0 0 0 0 0 0 0 0 0 0 0 0 3 4 13 13 26 138 140 103 3 0 0 0 0 238 15 4 0 0
4 8 8 2 0 0 0 0 0 0 0 0 0 0 0 0 0 0 0 0 0 0 0 0 0 0 0 4 0 0 0 10 83 74 22 16 0 0 0 80 196 170 12 0 0
2 4 3 0 0 0 0 0 0 0 0 0 0 0 0 0 0 0 0 0 0 0 0 0 0 0 1 0 0 0 25 16 0 0 45 0 0 6 62 60 395 132 79 71 20
3 3 2 0 0 0 0 0 0 0 0 0 0 0 0 0 0 0 0 0 0 0 0 0 0 0 0 0 0 0 11 0 0 0 0 1 0 0 56 23 607 343 167 220 221
4 2 0 0 0 0 0 0 0 0 0 0 0 0 0 0 0 0 0 0 0 0 0 0 0 0 0 0 0 0 0 0 0 0 0 0 4 2 151 145 692 844 522 99 84
0 0 2 0 0 0 0 0 0 0 5 0 0 0 0 0 0 0 0 0 0 0 0 0 0 0 0 0 0 0 0 0 32 0 12 11 78 154 321 359 446 667 1004 957 807
0 0 0 0 0 0 0 0 0 0 23 0 0 0 0 0 0 0 0 0 0 0 0 0 0 0 0 0 0 0 0 0 62 34 5 43 118 351 372 425 482 702 743 593 613
0 0 0 0 0 0 0 0 0 72 36 4 0 0 0 0 0 0 0 0 0 0 0 0 8 0 0 0 0 0 0 0 0 3 29 0 14 173 260 806 1020 1161 1266 1039 795
0 0 0 0 0 0 0 0 0 70 0 17 0 0 0 0 0 0 0 0 0 0 0 0 19 9 0 0 0 0 0 0 0 6 0 221 227 117 34 999 1158 1261 1292 1345 1400
0 0 4 0 0 0 0 0 0 0 0 1 8 0 0 0 0 0 0 0 0 0 0 0 19 2 5 0 0 0 0 0 1 0 43 20 188 219 2 830 858 889 983 1141 1317
0 175 0 0 0 0 0 0 0 0 0 19 4 0 2 0 0 0 0 2 0 0 0 0 0 2 0 1 0 46 38 19 16 2 9 33 201 313 0 560 484 510 607 699 808
0 242 0 0 0 0 0 0 0 0 0 48 18 38 64 4 29 15 9 0 0 0 0 0 28 0 18 6 24 46 6 0 14 0 31 122 232 0 0 464 399 402 380 387 307
13 481 70 0 0 0 0 53 89 1 0 10 98 14 38 0 5 52 26 0 0 0 8 0 0 0 81 0 0 0 0 1 18 4 13 122 279 3 4 265 262 264 139 113 92
0 739 389 180 94 0 0 29 70 10 0 4 67 168 114 136 17 64 64 0 0 0 0 0 0 0 0 0 0 3 0 1 0 0 34 398 362 340 473 442 362 36 0 0 0
0 0 0 0 47 342 11 0 31 72 102 110 138 212 290 0 71 16 0 3 9 0 0 0 0 0 0 0 5 15 28 0 0 0 577 637 625 335 190 203 0 29 0 0 0
0 0 0 12 186 179 210 178 45 127 5 25 3 137 97 0 0 28 0 0 0 0 0 0 0 0 0 0 0 0 5 15 18 139 386 234 84 7 0 0 0 0 0 0 0